1387389634165,0.000172112
1387389694165,0.000171397
1387389754165,0.000169640
1387389814165,0.000170994
1387389874165,0.000171374
1387389934165,0.000171244
1387389994165,0.000172188
1387390054165,0.000170254
1387390114165,0.000171420
1387390174165,0.000171680
1387390234165,0.000172342
1387390294165,0.000169885
1387390354165,0.000169163
1387390414165,0.000169841
1387390474165,0.000169633
1387390534165,0.000171016
1387390594165,0.000170382
1387390654165,0.000169331
1387390714165,0.000170050
1387390774165,0.000169821
1387390834165,0.000168172
1387390894165,0.000169477
1387390954165,0.000169369
1387391014165,0.000169190
1387391074165,0.000169478
1387391134165,0.000173341
1387391194165,0.000172552
1387391254165,0.000172424
1387391314165,0.000171746
1387391374165,0.000176884
1387391434165,0.000180837
1387391494165,0.000180266
1387391554165,0.000181294
1387391614165,0.000173929
1387391674165,0.000170311
1387391734165,0.000170287
1387391794165,0.000170436
1387391854165,0.000169134
1387391914165,0.000170323
1387391974165,0.000169830
1387392034165,0.000171305
1387392094165,0.000172026
1387392154165,0.000170086
1387392214165,0.000170276
1387392274165,0.000168963
1387392334165,0.000171523
1387392394165,0.000169729
1387392454165,0.000169525
1387392514165,0.000169680
1387392574165,0.000170204
1387392634165,0.000171250
1387392694165,0.000167578
1387392754165,0.000169027
1387392814165,0.000167368
1387392874165,0.000168309
1387392934165,0.000170216
1387392994165,0.000167828
1387393054165,0.000168469
1387393114165,0.000168777
1387393174165,0.000169397
1387393234176,0.000168850
1387393294176,0.000168747
1387393354176,0.000169328
1387393414176,0.000169556
1387393474176,0.000168264
1387393534176,0.000168315
1387393594176,0.000169662
1387393654176,0.000169296
1387393714176,0.000168471
1387393774176,0.000168530
1387393834176,0.000169126
1387393894176,0.000171333
1387393954176,0.000168575
1387394014176,0.000168641
1387394074176,0.000170407
1387394134176,0.000167432
1387394194176,0.000167182
1387394254176,0.000167341
1387394314176,0.000166381
1387394374176,0.000166883
1387394434176,0.000169299
1387394494176,0.000167627
1387394554176,0.000168653
1387394614176,0.000168728
1387394674176,0.000170524
1387394734176,0.000168724
1387394794176,0.000170301
1387394854176,0.000171551
1387394914176,0.000171900
1387394974176,0.000173574
1387395034176,0.000170699
1387395094176,0.000172449
1387395154176,0.000171131
1387395214176,0.000170760
1387395274176,0.000169644
1387395334176,0.000169196
1387395394176,0.000167808
1387395454176,0.000167907
1387395514176,0.000166709
1387395574176,0.000169918
1387395634176,0.000168944
1387395694176,0.000170445
1387395754176,0.000169424
1387395814176,0.000168236
1387395874176,0.000168821
1387395934176,0.000167687
1387395994176,0.000170615
1387396054176,0.000168397
1387396114176,0.000170150
1387396174176,0.000169171
1387396234176,0.000171622
1387396294176,0.000174196
1387396354176,0.000176531
1387396414176,0.000175297
1387396474176,0.000172046
1387396534176,0.000170004
1387396594176,0.000167312
1387396654176,0.000166905
1387396714176,0.000169071
1387396774176,0.000169247
1387396834187,0.000170801
1387396894187,0.000168556
1387396954187,0.000168045
1387397014187,0.000168141
1387397074187,0.000169897
1387397134187,0.000170170
1387397194187,0.000169640
1387397254187,0.000169265
1387397314187,0.000168440
1387397374187,0.000168629
1387397434187,0.000170378
1387397494187,0.000169731
1387397554187,0.000169226
1387397614187,0.000172084
1387397674187,0.000172039
1387397734187,0.000171239
1387397794187,0.000169879
1387397854187,0.000171694
1387397914187,0.000169914
1387397974187,0.000170637
1387398034187,0.000170701
1387398094187,0.000169458
1387398154187,0.000170406
1387398214187,0.000168371
1387398274187,0.000169741
1387398334187,0.000170357
1387398394187,0.000170229
1387398454187,0.000173487
1387398514187,0.000172982
1387398574187,0.000171695
1387398634187,0.000171504
1387398694187,0.000172631
1387398754187,0.000170291
1387398814187,0.000169825
1387398874187,0.000169304
1387398934187,0.000169900
1387398994187,0.000168123
1387399054187,0.000169662
1387399114187,0.000167905
1387399174187,0.000170753
1387399234187,0.000169886
1387399294187,0.000169705
1387399354187,0.000169686
1387399414187,0.000167673
1387399474187,0.000168511
1387399534187,0.000171048
1387399594187,0.000170234
1387399654187,0.000172309
1387399714187,0.000172781
1387399774187,0.000172945
1387399834187,0.000172569
1387399894187,0.000172313
1387399954187,0.000172988
1387400014187,0.000179130
1387400074187,0.000180117
1387400134187,0.000176970
1387400194187,0.000177548
1387400254187,0.000175755
1387400314187,0.000175342
1387400374187,0.000175848
1387400434198,0.000176870
1387400494198,0.000177209
1387400554198,0.000177373
1387400614198,0.000175005
1387400674198,0.000173914
